Time,TemperatureF,DewpointF,PressureIn,WindDirection,WindDirectionDegrees,WindSpeedMPH,WindSpeedGustMPH,Humidity,HourlyPrecipIn,Conditions,Clouds,dailyrainin,SoftwareType,DateUTC
2013-01-14 00:00:00,60.7,52.8,30.11,SSW,193,5.8,5.8,75,0.00,,---,0.00,VWS V14.01,2013-01-14 05:00:00,
2013-01-14 00:01:00,60.7,52.8,30.11,SSW,193,0.0,5.8,75,0.00,,---,0.00,VWS V14.01,2013-01-14 05:01:00,
2013-01-14 00:03:00,60.7,52.8,30.11,South,185,0.0,0.0,75,0.00,,---,0.00,VWS V14.01,2013-01-14 05:03:00,
2013-01-14 00:08:00,60.7,52.8,30.11,South,186,0.0,0.0,75,0.00,,---,0.00,VWS V14.01,2013-01-14 05:08:00,
2013-01-14 00:14:00,60.5,52.6,30.11,SSE,163,0.0,0.0,75,0.00,,---,0.00,VWS V14.01,2013-01-14 05:14:00,
2013-01-14 00:19:00,60.4,52.4,30.11,SSE,163,0.0,0.0,75,0.00,,---,0.00,VWS V14.01,2013-01-14 05:19:00,
2013-01-14 00:24:00,60.2,52.3,30.14,SSE,163,0.0,0.0,75,0.00,,---,0.00,VWS V14.01,2013-01-14 05:24:00,
2013-01-14 00:29:00,59.8,51.9,30.14,SSE,163,0.0,0.0,75,0.00,,---,0.00,VWS V14.01,2013-01-14 05:29:00,
2013-01-14 00:34:00,59.6,51.7,30.14,SSE,154,3.2,4.5,75,0.00,,---,0.00,VWS V14.01,2013-01-14 05:34:00,
2013-01-14 00:39:00,59.5,51.6,30.14,SSE,154,0.0,0.0,75,0.00,,---,0.00,VWS V14.01,2013-01-14 05:39:00,
2013-01-14 00:44:00,59.3,51.4,30.14,SSE,154,0.0,0.0,75,0.00,,---,0.00,VWS V14.01,2013-01-14 05:44:00,
2013-01-14 00:49:00,59.3,51.4,30.14,SSE,154,0.0,0.0,75,0.00,,---,0.00,VWS V14.01,2013-01-14 05:49:00,
2013-01-14 00:54:00,59.1,51.2,30.14,SSE,154,0.0,0.0,75,0.00,,---,0.00,VWS V14.01,2013-01-14 05:54:00,
2013-01-14 01:00:00,58.9,51.0,30.14,SSE,154,0.0,0.0,75,0.00,,---,0.00,VWS V14.01,2013-01-14 06:00:00,
2013-01-14 01:05:00,58.9,51.5,30.14,SSE,154,0.0,0.0,76,0.00,,---,0.00,VWS V14.01,2013-01-14 06:05:00,
2013-01-14 01:10:00,58.7,51.4,30.14,ESE,119,0.0,0.0,76,0.00,,---,0.00,VWS V14.01,2013-01-14 06:10:00,
2013-01-14 01:15:00,58.9,51.5,30.14,SW,218,3.2,3.2,76,0.00,,---,0.00,VWS V14.01,2013-01-14 06:15:00,
2013-01-14 01:20:00,59.1,52.2,30.14,NW,306,0.0,0.0,78,0.00,,---,0.00,VWS V14.01,2013-01-14 06:20:00,
2013-01-14 01:25:00,59.6,52.7,30.14,NW,311,0.0,0.0,78,0.00,,---,0.00,VWS V14.01,2013-01-14 06:25:00,
2013-01-14 01:30:00,60.2,53.7,30.14,SW,225,0.0,0.0,79,0.00,,---,0.00,VWS V14.01,2013-01-14 06:30:00,
2013-01-14 01:35:00,60.5,54.1,30.14,West,260,5.8,7.8,79,0.00,,---,0.00,VWS V14.01,2013-01-14 06:35:00,
2013-01-14 01:40:00,61.1,54.6,30.14,WSW,258,4.5,5.8,79,0.00,,---,0.00,VWS V14.01,2013-01-14 06:40:00,
2013-01-14 01:45:00,61.6,55.1,30.14,West,267,5.8,5.8,79,0.00,,---,0.00,VWS V14.01,2013-01-14 06:45:00,
2013-01-14 01:50:00,62.0,55.0,30.14,WSW,238,0.0,0.0,78,0.00,,---,0.00,VWS V14.01,2013-01-14 06:50:00,
2013-01-14 01:56:00,62.3,55.3,30.14,WNW,298,0.0,0.0,78,0.00,,---,0.00,VWS V14.01,2013-01-14 06:56:00,
2013-01-14 02:01:00,62.5,55.0,30.14,SW,234,0.0,0.0,76,0.00,,---,0.00,VWS V14.01,2013-01-14 07:01:00,
2013-01-14 02:06:00,62.7,55.2,30.14,WNW,283,0.0,3.9,76,0.00,,---,0.00,VWS V14.01,2013-01-14 07:06:00,
2013-01-14 02:11:00,62.9,54.9,30.16,SW,230,0.0,0.0,75,0.00,,---,0.00,VWS V14.01,2013-01-14 07:11:00,
2013-01-14 02:16:00,62.9,54.3,30.16,NW,314,0.0,6.5,74,0.00,,---,0.00,VWS V14.01,2013-01-14 07:16:00,
2013-01-14 02:21:00,62.9,54.3,30.16,NW,319,0.0,0.0,74,0.00,,---,0.00,VWS V14.01,2013-01-14 07:21:00,
2013-01-14 02:26:00,63.1,54.5,30.16,West,267,0.0,0.0,74,0.00,,---,0.00,VWS V14.01,2013-01-14 07:26:00,
2013-01-14 02:31:00,63.1,54.5,30.16,SSW,211,4.5,4.5,74,0.00,,---,0.00,VWS V14.01,2013-01-14 07:31:00,
2013-01-14 02:36:00,63.2,54.2,30.16,SW,219,0.0,5.8,72,0.00,,---,0.00,VWS V14.01,2013-01-14 07:36:00,
2013-01-14 02:41:00,63.4,54.3,30.14,SW,214,5.8,7.1,72,0.00,,---,0.00,VWS V14.01,2013-01-14 07:41:00,
2013-01-14 02:46:00,63.4,54.3,30.14,SSW,201,0.0,0.0,72,0.00,,---,0.00,VWS V14.01,2013-01-14 07:46:00,
2013-01-14 02:51:00,63.2,54.2,30.14,SW,218,5.2,5.2,72,0.00,,---,0.00,VWS V14.01,2013-01-14 07:51:00,
2013-01-14 02:57:00,63.2,53.7,30.14,SW,230,0.0,0.0,71,0.00,,---,0.00,VWS V14.01,2013-01-14 07:57:00,
2013-01-14 03:02:00,63.1,53.5,30.14,South,190,4.5,4.5,71,0.00,,---,0.00,VWS V14.01,2013-01-14 08:02:00,
2013-01-14 03:07:00,63.1,53.5,30.14,SW,218,3.9,4.5,71,0.00,,---,0.00,VWS V14.01,2013-01-14 08:07:00,
2013-01-14 03:12:00,62.9,53.3,30.14,SSW,196,0.0,3.2,71,0.00,,---,0.00,VWS V14.01,2013-01-14 08:12:00,
2013-01-14 03:17:00,62.9,53.3,30.14,SSE,168,3.2,3.2,71,0.00,,---,0.00,VWS V14.01,2013-01-14 08:17:00,
2013-01-14 03:22:00,62.9,52.8,30.14,SSW,200,0.0,3.9,70,0.00,,---,0.00,VWS V14.01,2013-01-14 08:22:00,
2013-01-14 03:27:00,62.9,52.8,30.14,South,182,4.5,8.4,70,0.00,,---,0.00,VWS V14.01,2013-01-14 08:27:00,
2013-01-14 03:32:00,62.9,52.8,30.14,SSW,192,3.2,3.9,70,0.00,,---,0.00,VWS V14.01,2013-01-14 08:32:00,
2013-01-14 03:37:00,63.1,52.9,30.14,SSE,163,3.9,5.8,70,0.00,,---,0.00,VWS V14.01,2013-01-14 08:37:00,
2013-01-14 03:43:00,63.2,53.1,30.11,SW,222,4.5,8.4,70,0.00,,---,0.00,VWS V14.01,2013-01-14 08:43:00,
2013-01-14 03:48:00,63.4,53.3,30.11,SSW,213,7.1,7.1,70,0.00,,---,0.00,VWS V14.01,2013-01-14 08:48:00,
2013-01-14 03:53:00,63.8,53.1,30.11,SW,214,0.0,5.2,68,0.00,,---,0.00,VWS V14.01,2013-01-14 08:53:00,
2013-01-14 03:58:00,64.0,53.2,30.11,South,191,8.4,8.4,68,0.00,,---,0.00,VWS V14.01,2013-01-14 08:58:00,
2013-01-14 04:03:00,64.0,52.7,30.11,SW,227,0.0,0.0,67,0.00,,---,0.00,VWS V14.01,2013-01-14 09:03:00,
2013-01-14 04:08:00,64.1,52.9,30.11,SW,220,5.8,6.5,67,0.00,,---,0.00,VWS V14.01,2013-01-14 09:08:00,
2013-01-14 04:13:00,64.3,53.0,30.11,SW,223,5.8,8.4,67,0.00,,---,0.00,VWS V14.01,2013-01-14 09:13:00,
2013-01-14 04:18:00,64.5,52.6,30.11,WSW,255,0.0,0.0,65,0.00,,---,0.00,VWS V14.01,2013-01-14 09:18:00,
2013-01-14 04:24:00,64.5,52.6,30.11,SSW,192,0.0,0.0,65,0.00,,---,0.00,VWS V14.01,2013-01-14 09:24:00,
2013-01-14 04:29:00,64.5,52.6,30.11,NNE,32,5.8,7.8,65,0.00,,---,0.00,VWS V14.01,2013-01-14 09:29:00,
2013-01-14 04:34:00,64.5,52.6,30.11,East,85,3.9,4.5,65,0.00,,---,0.00,VWS V14.01,2013-01-14 09:34:00,
2013-01-14 04:39:00,64.3,51.9,30.11,East,84,0.0,0.0,64,0.00,,---,0.00,VWS V14.01,2013-01-14 09:39:00,
2013-01-14 04:44:00,64.1,51.7,30.11,East,83,0.0,0.0,64,0.00,,---,0.00,VWS V14.01,2013-01-14 09:44:00,
2013-01-14 04:49:00,63.8,51.4,30.11,East,84,0.0,0.0,64,0.00,,---,0.00,VWS V14.01,2013-01-14 09:49:00,
2013-01-14 04:54:00,63.2,50.8,30.11,East,84,0.0,0.0,64,0.00,,---,0.00,VWS V14.01,2013-01-14 09:54:00,
2013-01-14 04:59:00,62.9,50.5,30.11,North,353,5.2,5.8,64,0.00,,---,0.00,VWS V14.01,2013-01-14 09:59:00,
2013-01-14 05:04:00,62.3,50.0,30.11,North,353,0.0,0.0,64,0.00,,---,0.00,VWS V14.01,2013-01-14 10:04:00,
2013-01-14 05:09:00,62.0,49.7,30.11,NNE,25,0.0,0.0,64,0.00,,---,0.00,VWS V14.01,2013-01-14 10:09:00,
2013-01-14 05:14:00,61.6,49.9,30.11,SE,145,0.0,0.0,65,0.00,,---,0.00,VWS V14.01,2013-01-14 10:14:00,
2013-01-14 05:20:00,61.3,49.5,30.11,North,350,0.0,0.0,65,0.00,,---,0.00,VWS V14.01,2013-01-14 10:20:00,
2013-01-14 05:25:00,60.7,49.0,30.11,East,96,0.0,0.0,65,0.00,,---,0.00,VWS V14.01,2013-01-14 10:25:00,
2013-01-14 05:30:00,60.5,48.9,30.11,NNE,24,0.0,0.0,65,0.00,,---,0.00,VWS V14.01,2013-01-14 10:30:00,
2013-01-14 05:35:00,60.4,49.3,30.11,NNE,25,0.0,0.0,67,0.00,,---,0.00,VWS V14.01,2013-01-14 10:35:00,
2013-01-14 05:40:00,60.4,49.3,30.14,SSE,156,4.5,5.8,67,0.00,,---,0.00,VWS V14.01,2013-01-14 10:40:00,
2013-01-14 05:45:00,60.4,49.3,30.14,SSE,151,3.9,3.9,67,0.00,,---,0.00,VWS V14.01,2013-01-14 10:45:00,
2013-01-14 05:50:00,60.2,49.1,30.14,SSE,153,0.0,0.0,67,0.00,,---,0.00,VWS V14.01,2013-01-14 10:50:00,
2013-01-14 05:56:00,60.2,49.6,30.14,SSE,153,0.0,0.0,68,0.00,,---,0.00,VWS V14.01,2013-01-14 10:56:00,
2013-01-14 06:01:00,60.2,49.6,30.14,SSE,166,0.0,0.0,68,0.00,,---,0.00,VWS V14.01,2013-01-14 11:01:00,
2013-01-14 06:06:00,60.0,49.5,30.14,SSE,166,0.0,0.0,68,0.00,,---,0.00,VWS V14.01,2013-01-14 11:06:00,
2013-01-14 06:11:00,59.8,49.8,30.14,SSE,163,0.0,0.0,70,0.00,,---,0.00,VWS V14.01,2013-01-14 11:11:00,
2013-01-14 06:16:00,59.8,49.8,30.14,SSE,157,5.8,7.1,70,0.00,,---,0.00,VWS V14.01,2013-01-14 11:16:00,
2013-01-14 06:21:00,59.6,49.7,30.14,SSE,167,0.0,0.0,70,0.00,,---,0.00,VWS V14.01,2013-01-14 11:21:00,
2013-01-14 06:27:00,59.5,49.5,30.14,SSE,167,0.0,0.0,70,0.00,,---,0.00,VWS V14.01,2013-01-14 11:27:00,
2013-01-14 06:32:00,59.3,49.8,30.14,SE,135,3.2,3.2,71,0.00,,---,0.00,VWS V14.01,2013-01-14 11:32:00,
2013-01-14 06:37:00,59.1,49.7,30.14,North,350,0.0,0.0,71,0.00,,---,0.00,VWS V14.01,2013-01-14 11:37:00,
2013-01-14 06:42:00,58.9,49.5,30.16,North,353,0.0,0.0,71,0.00,,---,0.00,VWS V14.01,2013-01-14 11:42:00,
2013-01-14 06:47:00,58.9,50.0,30.16,North,353,0.0,0.0,72,0.00,,---,0.00,VWS V14.01,2013-01-14 11:47:00,
2013-01-14 06:52:00,58.7,49.8,30.16,SSE,151,4.5,4.5,72,0.00,,---,0.00,VWS V14.01,2013-01-14 11:52:00,
2013-01-14 06:57:00,58.7,49.8,30.16,East,85,0.0,0.0,72,0.00,,---,0.00,VWS V14.01,2013-01-14 11:57:00,
2013-01-14 07:02:00,58.7,50.4,30.16,East,85,0.0,0.0,74,0.00,,---,0.00,VWS V14.01,2013-01-14 12:02:00,
2013-01-14 07:07:00,58.7,50.4,30.16,East,85,0.0,0.0,74,0.00,,---,0.00,VWS V14.01,2013-01-14 12:07:00,
2013-01-14 07:12:00,58.9,50.5,30.16,East,85,0.0,0.0,74,0.00,,---,0.00,VWS V14.01,2013-01-14 12:12:00,
2013-01-14 07:17:00,58.9,51.0,30.16,North,350,0.0,0.0,75,0.00,,---,0.00,VWS V14.01,2013-01-14 12:17:00,
2013-01-14 07:22:00,59.1,51.2,30.16,NE,45,0.0,0.0,75,0.00,,---,0.00,VWS V14.01,2013-01-14 12:22:00,
2013-01-14 07:27:00,59.3,51.9,30.16,NE,45,0.0,0.0,76,0.00,,---,0.00,VWS V14.01,2013-01-14 12:27:00,
2013-01-14 07:32:00,59.3,51.9,30.16,SE,134,3.9,3.9,76,0.00,,---,0.00,VWS V14.01,2013-01-14 12:32:00,
2013-01-14 07:38:00,59.3,51.9,30.16,ESE,122,0.0,0.0,76,0.00,,---,0.00,VWS V14.01,2013-01-14 12:38:00,
2013-01-14 07:43:00,59.3,52.4,30.16,ESE,122,0.0,0.0,78,0.00,,---,0.00,VWS V14.01,2013-01-14 12:43:00,
2013-01-14 07:48:00,59.1,52.2,30.16,NNE,24,0.0,0.0,78,0.00,,---,0.00,VWS V14.01,2013-01-14 12:48:00,
2013-01-14 07:53:00,58.9,52.0,30.19,NNE,24,0.0,0.0,78,0.00,,---,0.00,VWS V14.01,2013-01-14 12:53:00,
2013-01-14 07:58:00,58.9,52.5,30.19,NNE,24,0.0,0.0,79,0.00,,---,0.00,VWS V14.01,2013-01-14 12:58:00,
2013-01-14 08:03:00,58.7,52.3,30.19,NNE,24,0.0,0.0,79,0.00,,---,0.00,VWS V14.01,2013-01-14 13:03:00,
2013-01-14 08:09:00,58.7,52.3,30.19,ESE,109,0.0,0.0,79,0.00,,---,0.00,VWS V14.01,2013-01-14 13:09:00,
2013-01-14 08:14:00,58.6,52.6,30.19,ESE,109,0.0,0.0,81,0.00,,---,0.00,VWS V14.01,2013-01-14 13:14:00,
2013-01-14 08:19:00,58.6,52.6,30.19,ESE,111,0.0,0.0,81,0.00,,---,0.00,VWS V14.01,2013-01-14 13:19:00,
2013-01-14 08:24:00,58.6,52.6,30.19,ESE,111,0.0,0.0,81,0.00,,---,0.00,VWS V14.01,2013-01-14 13:24:00,
2013-01-14 08:29:00,58.7,53.3,30.19,NE,56,0.0,0.0,82,0.00,,---,0.00,VWS V14.01,2013-01-14 13:29:00,
2013-01-14 08:34:00,58.9,53.5,30.19,NE,43,3.9,3.9,82,0.00,,---,0.00,VWS V14.01,2013-01-14 13:34:00,
2013-01-14 08:40:00,59.1,54.1,30.19,NNE,23,0.0,0.0,83,0.00,,---,0.00,VWS V14.01,2013-01-14 13:40:00,
2013-01-14 08:45:00,59.3,54.3,30.19,North,3,0.0,0.0,83,0.00,,---,0.00,VWS V14.01,2013-01-14 13:45:00,
2013-01-14 08:50:00,59.6,55.1,30.19,NNW,345,4.5,4.5,85,0.00,,---,0.00,VWS V14.01,2013-01-14 13:50:00,
2013-01-14 08:55:00,59.8,55.2,30.22,North,357,0.0,0.0,85,0.00,,---,0.00,VWS V14.01,2013-01-14 13:55:00,
2013-01-14 09:00:00,60.0,55.4,30.22,North,353,0.0,3.2,85,0.00,,---,0.00,VWS V14.01,2013-01-14 14:00:00,
2013-01-14 09:05:00,60.0,55.4,30.22,North,353,3.9,4.5,85,0.00,,---,0.00,VWS V14.01,2013-01-14 14:05:00,
2013-01-14 09:10:00,60.2,56.0,30.22,North,357,4.5,4.5,86,0.00,,---,0.00,VWS V14.01,2013-01-14 14:10:00,
2013-01-14 09:15:00,60.4,56.2,30.22,NNW,334,7.1,7.1,86,0.00,,---,0.00,VWS V14.01,2013-01-14 14:15:00,
2013-01-14 09:20:00,60.4,56.2,30.22,NNW,333,8.4,8.4,86,0.00,,---,0.00,VWS V14.01,2013-01-14 14:20:00,
2013-01-14 09:26:00,60.5,56.4,30.22,North,353,5.2,5.8,86,0.00,,---,0.00,VWS V14.01,2013-01-14 14:26:00,
2013-01-14 09:31:00,60.2,56.0,30.22,NW,324,11.7,11.7,86,0.00,,---,0.00,VWS V14.01,2013-01-14 14:31:00,
2013-01-14 09:36:00,59.8,55.7,30.22,North,353,5.8,5.8,86,0.00,,---,0.00,VWS V14.01,2013-01-14 14:36:00,
2013-01-14 09:41:00,59.8,55.7,30.25,North,357,5.8,10.4,86,0.00,,---,0.00,VWS V14.01,2013-01-14 14:41:00,
2013-01-14 09:46:00,59.8,55.2,30.25,North,2,4.5,7.8,85,0.00,,---,0.00,VWS V14.01,2013-01-14 14:46:00,
2013-01-14 09:51:00,59.6,55.1,30.25,North,353,7.1,7.8,85,0.00,,---,0.00,VWS V14.01,2013-01-14 14:51:00,
2013-01-14 09:56:00,59.6,54.2,30.22,North,2,5.8,9.1,82,0.00,,---,0.00,VWS V14.01,2013-01-14 14:56:00,
2013-01-14 10:01:00,59.5,54.0,30.22,North,353,5.8,8.4,82,0.00,,---,0.00,VWS V14.01,2013-01-14 15:01:00,
2013-01-14 10:06:00,59.5,53.5,30.22,North,0,4.5,7.8,81,0.00,,---,0.00,VWS V14.01,2013-01-14 15:06:00,
2013-01-14 10:11:00,59.5,53.0,30.25,North,0,4.5,6.5,79,0.00,,---,0.00,VWS V14.01,2013-01-14 15:11:00,
2013-01-14 10:16:00,59.5,53.0,30.25,NNE,24,4.5,7.1,79,0.00,,---,0.00,VWS V14.01,2013-01-14 15:16:00,
2013-01-14 10:21:00,59.5,53.0,30.25,NE,50,5.8,5.8,79,0.00,,---,0.00,VWS V14.01,2013-01-14 15:21:00,
2013-01-14 10:27:00,59.5,52.5,30.25,NNE,13,5.8,7.8,78,0.00,,---,0.00,VWS V14.01,2013-01-14 15:27:00,
2013-01-14 10:32:00,59.3,51.9,30.25,North,7,7.1,7.1,76,0.00,,---,0.00,VWS V14.01,2013-01-14 15:32:00,
2013-01-14 10:37:00,59.1,51.2,30.25,ENE,67,5.2,9.1,75,0.00,,---,0.00,VWS V14.01,2013-01-14 15:37:00,
2013-01-14 10:42:00,59.1,50.2,30.25,NE,39,8.4,9.1,72,0.00,,---,0.00,VWS V14.01,2013-01-14 15:42:00,
2013-01-14 10:47:00,58.9,50.0,30.25,NE,42,8.4,9.1,72,0.00,,---,0.00,VWS V14.01,2013-01-14 15:47:00,
2013-01-14 10:53:00,58.7,49.8,30.25,North,10,4.5,5.8,72,0.00,,---,0.00,VWS V14.01,2013-01-14 15:53:00,
2013-01-14 10:58:00,58.6,49.7,30.25,North,4,8.4,9.1,72,0.00,,---,0.00,VWS V14.01,2013-01-14 15:58:00,
2013-01-14 11:03:00,58.4,49.0,30.25,North,2,7.8,9.1,71,0.00,,---,0.00,VWS V14.01,2013-01-14 16:03:00,
2013-01-14 11:08:00,58.4,48.5,30.25,North,353,9.1,9.1,70,0.00,,---,0.00,VWS V14.01,2013-01-14 16:08:00,
2013-01-14 11:13:00,58.4,48.5,30.25,North,357,8.4,9.1,70,0.00,,---,0.00,VWS V14.01,2013-01-14 16:13:00,
2013-01-14 11:18:00,58.2,48.3,30.25,North,8,7.8,9.7,70,0.00,,---,0.00,VWS V14.01,2013-01-14 16:18:00,
2013-01-14 11:24:00,58.2,48.3,30.25,NE,52,5.2,7.1,70,0.00,,---,0.00,VWS V14.01,2013-01-14 16:24:00,
2013-01-14 11:29:00,58.0,48.1,30.25,NNE,17,7.1,8.4,70,0.00,,---,0.00,VWS V14.01,2013-01-14 16:29:00,
2013-01-14 11:34:00,57.7,47.8,30.25,North,353,5.8,5.8,70,0.00,,---,0.00,VWS V14.01,2013-01-14 16:34:00,
2013-01-14 11:39:00,57.5,47.6,30.25,NNE,12,3.9,5.8,70,0.00,,---,0.00,VWS V14.01,2013-01-14 16:39:00,
2013-01-14 11:44:00,57.1,47.2,30.25,NNW,338,4.5,7.8,70,0.00,,---,0.00,VWS V14.01,2013-01-14 16:44:00,
2013-01-14 11:49:00,56.9,47.1,30.25,NE,41,0.0,3.9,70,0.00,,---,0.00,VWS V14.01,2013-01-14 16:49:00,
2013-01-14 11:54:00,57.1,47.8,30.25,ENE,60,3.9,4.5,71,0.00,,---,0.00,VWS V14.01,2013-01-14 16:54:00,
2013-01-14 12:00:00,57.1,47.8,30.25,NNW,348,4.5,4.5,71,0.00,,---,0.00,VWS V14.01,2013-01-14 17:00:00,
2013-01-14 12:05:00,57.3,48.0,30.25,NNW,345,5.2,5.2,71,0.00,,---,0.00,VWS V14.01,2013-01-14 17:05:00,
2013-01-14 12:10:00,57.3,48.0,30.25,NNW,343,4.5,4.5,71,0.00,,---,0.00,VWS V14.01,2013-01-14 17:10:00,
2013-01-14 12:15:00,57.5,48.1,30.25,NNW,339,5.8,5.8,71,0.00,,---,0.00,VWS V14.01,2013-01-14 17:15:00,
2013-01-14 12:20:00,57.5,48.1,30.25,NNE,29,4.5,5.2,71,0.00,,---,0.00,VWS V14.01,2013-01-14 17:20:00,
2013-01-14 12:25:00,57.5,47.6,30.22,NNE,13,0.0,0.0,70,0.00,,---,0.00,VWS V14.01,2013-01-14 17:25:00,
2013-01-14 12:30:00,57.7,47.8,30.22,NNW,334,0.0,3.9,70,0.00,,---,0.00,VWS V14.01,2013-01-14 17:30:00,
2013-01-14 12:35:00,57.7,47.8,30.22,North,353,4.5,4.5,70,0.00,,---,0.00,VWS V14.01,2013-01-14 17:35:00,
2013-01-14 12:40:00,57.7,47.2,30.22,NNW,327,9.1,9.1,68,0.00,,---,0.00,VWS V14.01,2013-01-14 17:40:00,
2013-01-14 12:46:00,57.5,46.5,30.22,NNW,340,5.8,5.8,67,0.00,,---,0.00,VWS V14.01,2013-01-14 17:46:00,
2013-01-14 12:51:00,57.3,46.3,30.22,NW,308,3.9,4.5,67,0.00,,---,0.00,VWS V14.01,2013-01-14 17:51:00,
2013-01-14 12:56:00,57.3,46.3,30.22,NNW,339,4.5,5.2,67,0.00,,---,0.00,VWS V14.01,2013-01-14 17:56:00,
2013-01-14 13:01:00,57.3,46.3,30.22,NW,317,5.2,5.2,67,0.00,,---,0.00,VWS V14.01,2013-01-14 18:01:00,
2013-01-14 13:06:00,57.3,45.8,30.22,North,0,0.0,5.2,65,0.00,,---,0.00,VWS V14.01,2013-01-14 18:06:00,
2013-01-14 13:11:00,57.1,45.6,30.22,North,357,3.9,3.9,65,0.00,,---,0.00,VWS V14.01,2013-01-14 18:11:00,
2013-01-14 13:16:00,57.1,45.6,30.22,North,357,5.2,7.8,65,0.00,,---,0.00,VWS V14.01,2013-01-14 18:16:00,
2013-01-14 13:21:00,57.3,45.8,30.22,North,7,5.8,7.1,65,0.00,,---,0.00,VWS V14.01,2013-01-14 18:21:00,
2013-01-14 13:26:00,57.3,45.8,30.22,NNE,12,5.8,5.8,65,0.00,,---,0.00,VWS V14.01,2013-01-14 18:26:00,
2013-01-14 13:32:00,57.1,45.6,30.22,North,10,5.8,8.4,65,0.00,,---,0.00,VWS V14.01,2013-01-14 18:32:00,
2013-01-14 13:37:00,57.1,45.6,30.22,NNW,345,0.0,4.5,65,0.00,,---,0.00,VWS V14.01,2013-01-14 18:37:00,
2013-01-14 13:42:00,57.1,45.0,30.22,North,0,3.9,4.5,64,0.00,,---,0.00,VWS V14.01,2013-01-14 18:42:00,
2013-01-14 13:47:00,56.9,44.9,30.22,NNE,18,5.8,5.8,64,0.00,,---,0.00,VWS V14.01,2013-01-14 18:47:00,
2013-01-14 13:52:00,56.9,44.9,30.22,NNE,33,5.8,5.8,64,0.00,,---,0.00,VWS V14.01,2013-01-14 18:52:00,
2013-01-14 13:57:00,56.9,44.9,30.22,NNE,19,3.9,4.5,64,0.00,,---,0.00,VWS V14.01,2013-01-14 18:57:00,
2013-01-14 14:02:00,56.9,44.9,30.22,North,357,3.9,4.5,64,0.00,,---,0.00,VWS V14.01,2013-01-14 19:02:00,
2013-01-14 14:07:00,56.9,44.9,30.22,North,1,5.8,7.1,64,0.00,,---,0.00,VWS V14.01,2013-01-14 19:07:00,
2013-01-14 14:12:00,56.8,44.7,30.25,North,357,7.8,7.8,64,0.00,,---,0.00,VWS V14.01,2013-01-14 19:12:00,
2013-01-14 14:18:00,56.8,44.7,30.25,NNE,18,7.8,7.8,64,0.00,,---,0.00,VWS V14.01,2013-01-14 19:18:00,
2013-01-14 14:24:00,56.8,44.7,30.25,North,4,3.9,5.2,64,0.00,,---,0.00,VWS V14.01,2013-01-14 19:24:00,
2013-01-14 14:29:00,56.8,44.7,30.25,NNW,337,4.5,4.5,64,0.00,,---,0.00,VWS V14.01,2013-01-14 19:29:00,
2013-01-14 14:34:00,56.8,44.7,30.25,North,353,3.9,4.5,64,0.00,,---,0.00,VWS V14.01,2013-01-14 19:34:00,
2013-01-14 14:39:00,56.8,44.7,30.22,NNE,12,0.0,5.2,64,0.00,,---,0.00,VWS V14.01,2013-01-14 19:39:00,
2013-01-14 14:44:00,56.8,44.7,30.22,North,0,0.0,0.0,64,0.00,,---,0.00,VWS V14.01,2013-01-14 19:44:00,
2013-01-14 14:49:00,56.9,44.9,30.22,NNE,16,0.0,3.2,64,0.00,,---,0.00,VWS V14.01,2013-01-14 19:49:00,
2013-01-14 14:54:00,56.9,44.9,30.22,North,353,0.0,0.0,64,0.00,,---,0.00,VWS V14.01,2013-01-14 19:54:00,
2013-01-14 15:00:00,57.1,45.0,30.22,NE,39,0.0,0.0,64,0.00,,---,0.00,VWS V14.01,2013-01-14 20:00:00,
2013-01-14 15:05:00,57.3,45.2,30.22,North,353,5.8,5.8,64,0.00,,---,0.00,VWS V14.01,2013-01-14 20:05:00,
2013-01-14 15:10:00,57.3,44.6,30.22,NW,318,0.0,0.0,63,0.00,,---,0.00,VWS V14.01,2013-01-14 20:10:00,
2013-01-14 15:15:00,57.1,43.3,30.22,NNW,341,9.1,9.1,60,0.00,,---,0.00,VWS V14.01,2013-01-14 20:15:00,
2013-01-14 15:20:00,56.9,43.1,30.22,North,0,8.4,9.1,60,0.00,,---,0.00,VWS V14.01,2013-01-14 20:20:00,
2013-01-14 15:26:00,56.8,43.5,30.25,North,0,5.8,5.8,61,0.00,,---,0.00,VWS V14.01,2013-01-14 20:26:00,
2013-01-14 15:31:00,56.6,42.8,30.25,NE,36,5.2,5.8,60,0.00,,---,0.00,VWS V14.01,2013-01-14 20:31:00,
2013-01-14 15:36:00,56.6,42.8,30.25,NE,37,0.0,4.5,60,0.00,,---,0.00,VWS V14.01,2013-01-14 20:36:00,
2013-01-14 15:41:00,56.4,42.6,30.25,NNE,28,0.0,5.2,60,0.00,,---,0.00,VWS V14.01,2013-01-14 20:41:00,
2013-01-14 15:46:00,56.4,42.6,30.25,North,9,3.9,3.9,60,0.00,,---,0.00,VWS V14.01,2013-01-14 20:46:00,
2013-01-14 15:51:00,56.2,42.4,30.25,NNE,15,3.9,5.2,60,0.00,,---,0.00,VWS V14.01,2013-01-14 20:51:00,
2013-01-14 15:56:00,56.2,42.4,30.25,NNW,337,0.0,0.0,60,0.00,,---,0.00,VWS V14.01,2013-01-14 20:56:00,
2013-01-14 16:01:00,56.0,42.3,30.25,NNW,344,4.5,4.5,60,0.00,,---,0.00,VWS V14.01,2013-01-14 21:01:00,
2013-01-14 16:06:00,56.0,42.9,30.25,NNW,348,0.0,0.0,61,0.00,,---,0.00,VWS V14.01,2013-01-14 21:06:00,
2013-01-14 16:11:00,56.0,42.9,30.25,North,357,5.2,5.2,61,0.00,,---,0.00,VWS V14.01,2013-01-14 21:11:00,
2013-01-14 16:17:00,56.0,42.3,30.25,NNW,343,0.0,0.0,60,0.00,,---,0.00,VWS V14.01,2013-01-14 21:17:00,
2013-01-14 16:22:00,55.9,42.1,30.25,NNW,344,0.0,0.0,60,0.00,,---,0.00,VWS V14.01,2013-01-14 21:22:00,
2013-01-14 16:27:00,55.7,42.5,30.25,NNW,344,0.0,0.0,61,0.00,,---,0.00,VWS V14.01,2013-01-14 21:27:00,
2013-01-14 16:32:00,55.7,42.5,30.25,NNW,348,0.0,0.0,61,0.00,,---,0.00,VWS V14.01,2013-01-14 21:32:00,
2013-01-14 16:37:00,55.5,42.3,30.25,NNW,348,0.0,0.0,61,0.00,,---,0.00,VWS V14.01,2013-01-14 21:37:00,
2013-01-14 16:42:00,55.5,42.3,30.25,ESE,102,0.0,4.5,61,0.00,,---,0.00,VWS V14.01,2013-01-14 21:42:00,
2013-01-14 16:47:00,55.5,42.9,30.25,NNE,17,5.8,5.8,63,0.00,,---,0.00,VWS V14.01,2013-01-14 21:47:00,
2013-01-14 16:53:00,55.3,43.3,30.25,SE,135,4.5,4.5,64,0.00,,---,0.00,VWS V14.01,2013-01-14 21:53:00,
2013-01-14 16:58:00,55.1,43.2,30.25,South,190,0.0,5.2,64,0.00,,---,0.00,VWS V14.01,2013-01-14 21:58:00,
2013-01-14 17:03:00,54.8,42.8,30.25,WSW,257,0.0,0.0,64,0.00,,---,0.00,VWS V14.01,2013-01-14 22:03:00,
2013-01-14 17:08:00,54.6,42.7,30.25,SE,142,7.1,7.8,64,0.00,,---,0.00,VWS V14.01,2013-01-14 22:08:00,
2013-01-14 17:13:00,54.2,42.9,30.25,SSE,164,9.1,9.1,65,0.00,,---,0.00,VWS V14.01,2013-01-14 22:13:00,
2013-01-14 17:18:00,53.9,42.5,30.25,SSE,156,8.4,9.1,65,0.00,,---,0.00,VWS V14.01,2013-01-14 22:18:00,
2013-01-14 17:23:00,53.5,42.2,30.25,SSE,163,0.0,3.9,65,0.00,,---,0.00,VWS V14.01,2013-01-14 22:23:00,
2013-01-14 17:28:00,53.3,42.0,30.25,SE,143,7.1,7.1,65,0.00,,---,0.00,VWS V14.01,2013-01-14 22:28:00,
2013-01-14 17:34:00,53.2,41.8,30.25,WSW,246,0.0,3.2,65,0.00,,---,0.00,VWS V14.01,2013-01-14 22:34:00,
2013-01-14 17:39:00,52.8,42.0,30.31,WNW,290,0.0,0.0,67,0.00,,---,0.00,VWS V14.01,2013-01-14 22:39:00,
2013-01-14 17:44:00,52.6,41.9,30.31,SSW,204,0.0,5.8,67,0.00,,---,0.00,VWS V14.01,2013-01-14 22:44:00,
2013-01-14 17:49:00,52.3,41.5,30.31,South,179,3.2,5.8,67,0.00,,---,0.00,VWS V14.01,2013-01-14 22:49:00,
2013-01-14 17:54:00,51.7,41.0,30.28,SE,136,7.8,9.1,67,0.00,,---,0.00,VWS V14.01,2013-01-14 22:54:00,
2013-01-14 17:59:00,51.4,40.7,30.28,South,191,3.9,3.9,67,0.00,,---,0.00,VWS V14.01,2013-01-14 22:59:00,
2013-01-14 18:05:00,51.2,40.5,30.28,North,0,4.5,4.5,67,0.00,,---,0.00,VWS V14.01,2013-01-14 23:05:00,
2013-01-14 18:10:00,51.2,41.0,30.31,NNW,343,0.0,0.0,68,0.00,,---,0.00,VWS V14.01,2013-01-14 23:10:00,
2013-01-14 18:15:00,51.2,41.0,30.31,SE,132,5.2,5.8,68,0.00,,---,0.00,VWS V14.01,2013-01-14 23:15:00,
2013-01-14 18:20:00,51.2,41.0,30.31,ENE,78,0.0,5.2,68,0.00,,---,0.00,VWS V14.01,2013-01-14 23:20:00,
2013-01-14 18:25:00,50.8,40.7,30.31,SSE,150,5.2,5.2,68,0.00,,---,0.00,VWS V14.01,2013-01-14 23:25:00,
2013-01-14 18:30:00,50.6,40.5,30.31,SSE,153,5.2,5.2,68,0.00,,---,0.00,VWS V14.01,2013-01-14 23:30:00,
2013-01-14 18:36:00,50.3,40.2,30.31,SSE,156,3.9,3.9,68,0.00,,---,0.00,VWS V14.01,2013-01-14 23:36:00,
2013-01-14 18:41:00,50.1,40.0,30.31,SE,136,7.8,7.8,68,0.00,,---,0.00,VWS V14.01,2013-01-14 23:41:00,
2013-01-14 18:46:00,49.9,39.8,30.31,SE,136,3.9,4.5,68,0.00,,---,0.00,VWS V14.01,2013-01-14 23:46:00,
2013-01-14 18:51:00,49.7,40.2,30.31,SE,144,3.9,5.2,70,0.00,,---,0.00,VWS V14.01,2013-01-14 23:51:00,
2013-01-14 18:56:00,49.6,40.0,30.31,SE,133,0.0,0.0,70,0.04,,---,0.04,VWS V14.01,2013-01-14 23:56:00,
2013-01-14 19:01:00,49.4,39.8,30.31,SE,133,0.0,0.0,70,0.04,,---,0.04,VWS V14.01,2013-01-15 00:01:00,
2013-01-14 19:07:00,49.6,40.5,30.31,SE,133,0.0,0.0,71,0.04,,---,0.04,VWS V14.01,2013-01-15 00:07:00,
2013-01-14 19:12:00,49.4,40.3,30.34,SE,133,0.0,0.0,71,0.04,,---,0.04,VWS V14.01,2013-01-15 00:12:00,
2013-01-14 19:17:00,49.4,40.3,30.34,SE,133,0.0,0.0,71,0.04,,---,0.04,VWS V14.01,2013-01-15 00:17:00,
2013-01-14 19:22:00,49.4,40.8,30.34,SE,129,0.0,0.0,72,0.04,,---,0.04,VWS V14.01,2013-01-15 00:22:00,
2013-01-14 19:27:00,49.2,40.7,30.34,NNE,21,3.9,4.5,72,0.04,,---,0.04,VWS V14.01,2013-01-15 00:27:00,
2013-01-14 19:32:00,49.0,40.5,30.34,North,357,0.0,0.0,72,0.04,,---,0.04,VWS V14.01,2013-01-15 00:32:00,
2013-01-14 19:37:00,48.8,40.3,30.34,North,10,3.2,5.2,72,0.04,,---,0.04,VWS V14.01,2013-01-15 00:37:00,
2013-01-14 19:42:00,48.7,40.6,30.34,NNW,336,5.8,5.8,74,0.08,,---,0.08,VWS V14.01,2013-01-15 00:42:00,
2013-01-14 19:47:00,48.5,40.5,30.34,NE,36,0.0,0.0,74,0.08,,---,0.08,VWS V14.01,2013-01-15 00:47:00,
2013-01-14 19:53:00,48.3,40.8,30.34,North,357,0.0,0.0,75,0.08,,---,0.08,VWS V14.01,2013-01-15 00:53:00,
2013-01-14 19:58:00,48.5,41.4,30.34,NNW,346,4.5,5.2,76,0.04,,---,0.08,VWS V14.01,2013-01-15 00:58:00,
2013-01-14 20:03:00,48.1,40.6,30.34,NNW,340,7.8,9.1,75,0.04,,---,0.08,VWS V14.01,2013-01-15 01:03:00,
2013-01-14 20:08:00,47.4,39.9,30.34,NNE,28,5.8,7.1,75,0.04,,---,0.08,VWS V14.01,2013-01-15 01:08:00,
2013-01-14 20:13:00,46.9,39.4,30.34,NE,39,3.9,8.4,75,0.04,,---,0.08,VWS V14.01,2013-01-15 01:13:00,
2013-01-14 20:18:00,46.5,39.5,30.34,NE,34,8.4,8.4,76,0.04,,---,0.08,VWS V14.01,2013-01-15 01:18:00,
2013-01-14 20:23:00,46.3,39.3,30.34,North,6,3.9,4.5,76,0.04,,---,0.08,VWS V14.01,2013-01-15 01:23:00,
2013-01-14 20:28:00,46.1,39.2,30.34,North,11,8.4,8.4,76,0.04,,---,0.08,VWS V14.01,2013-01-15 01:28:00,
2013-01-14 20:33:00,46.1,39.6,30.34,NNE,29,3.2,5.8,78,0.04,,---,0.08,VWS V14.01,2013-01-15 01:33:00,
2013-01-14 20:38:00,46.0,39.4,30.34,NNE,25,4.5,11.0,78,0.04,,---,0.08,VWS V14.01,2013-01-15 01:38:00,
2013-01-14 20:44:00,45.6,39.1,30.34,North,0,3.2,4.5,78,0.00,,---,0.08,VWS V14.01,2013-01-15 01:44:00,
2013-01-14 20:49:00,45.4,39.4,30.34,NNE,13,3.9,3.9,79,0.00,,---,0.08,VWS V14.01,2013-01-15 01:49:00,
2013-01-14 20:54:00,45.4,39.8,30.34,NNW,333,5.2,7.1,81,0.00,,---,0.08,VWS V14.01,2013-01-15 01:54:00,
2013-01-14 20:59:00,45.2,40.1,30.34,NNW,334,4.5,5.8,82,0.00,,---,0.08,VWS V14.01,2013-01-15 01:59:00,
2013-01-14 21:04:00,45.1,40.3,30.34,NNW,346,0.0,0.0,83,0.04,,---,0.12,VWS V14.01,2013-01-15 02:04:00,
2013-01-14 21:09:00,44.7,40.0,30.34,North,8,5.2,5.2,83,0.04,,---,0.12,VWS V14.01,2013-01-15 02:09:00,
2013-01-14 21:15:00,44.3,39.2,30.34,North,0,3.9,4.5,82,0.04,,---,0.12,VWS V14.01,2013-01-15 02:15:00,
2013-01-14 21:20:00,44.2,39.0,30.34,NNE,25,3.9,3.9,82,0.04,,---,0.12,VWS V14.01,2013-01-15 02:20:00,
2013-01-14 21:25:00,44.0,38.8,30.34,NNW,344,5.2,5.2,82,0.04,,---,0.12,VWS V14.01,2013-01-15 02:25:00,
2013-01-14 21:30:00,43.8,38.7,30.34,North,8,7.1,7.1,82,0.04,,---,0.12,VWS V14.01,2013-01-15 02:30:00,
2013-01-14 21:35:00,43.6,38.5,30.34,North,357,4.5,7.8,82,0.04,,---,0.12,VWS V14.01,2013-01-15 02:35:00,
2013-01-14 21:40:00,43.3,38.2,30.34,NNW,341,7.1,7.1,82,0.04,,---,0.12,VWS V14.01,2013-01-15 02:40:00,
2013-01-14 21:45:00,43.1,38.0,30.34,North,349,7.1,7.8,82,0.04,,---,0.12,VWS V14.01,2013-01-15 02:45:00,
2013-01-14 21:51:00,43.1,38.4,30.34,NNE,13,7.1,7.8,83,0.04,,---,0.12,VWS V14.01,2013-01-15 02:51:00,
2013-01-14 21:56:00,42.9,38.2,30.34,NNE,16,9.7,12.0,83,0.04,,---,0.12,VWS V14.01,2013-01-15 02:56:00,
2013-01-14 22:01:00,42.7,38.0,30.34,NNE,24,5.8,8.4,83,0.04,,---,0.12,VWS V14.01,2013-01-15 03:01:00,
2013-01-14 22:06:00,42.7,38.5,30.34,NNW,348,9.1,9.1,85,0.00,,---,0.12,VWS V14.01,2013-01-15 03:06:00,
2013-01-14 22:11:00,42.5,38.3,30.37,North,353,9.1,12.6,85,0.00,,---,0.12,VWS V14.01,2013-01-15 03:11:00,
2013-01-14 22:16:00,42.4,38.1,30.37,North,2,12.0,12.0,85,0.00,,---,0.12,VWS V14.01,2013-01-15 03:16:00,
2013-01-14 22:21:00,42.2,37.9,30.37,North,9,9.1,11.7,85,0.00,,---,0.12,VWS V14.01,2013-01-15 03:21:00,
2013-01-14 22:26:00,42.2,38.3,30.37,NNW,334,5.8,8.4,86,0.00,,---,0.12,VWS V14.01,2013-01-15 03:26:00,
2013-01-14 22:31:00,42.2,38.3,30.37,North,2,9.1,9.1,86,0.00,,---,0.12,VWS V14.01,2013-01-15 03:31:00,
2013-01-14 22:36:00,42.0,38.2,30.37,North,357,7.8,7.8,86,0.00,,---,0.12,VWS V14.01,2013-01-15 03:36:00,
2013-01-14 22:42:00,42.0,38.6,30.37,NNW,335,9.1,9.1,88,0.00,,---,0.12,VWS V14.01,2013-01-15 03:42:00,
2013-01-14 22:47:00,41.8,38.4,30.37,North,7,7.1,7.8,88,0.00,,---,0.12,VWS V14.01,2013-01-15 03:47:00,
2013-01-14 22:52:00,41.8,38.4,30.37,NNE,17,9.1,12.0,88,0.00,,---,0.12,VWS V14.01,2013-01-15 03:52:00,
2013-01-14 22:57:00,41.6,38.2,30.37,NNW,342,9.1,9.1,88,0.00,,---,0.12,VWS V14.01,2013-01-15 03:57:00,
2013-01-14 23:02:00,41.6,38.6,30.37,NNE,16,6.5,8.4,89,0.04,,---,0.16,VWS V14.01,2013-01-15 04:02:00,
2013-01-14 23:07:00,41.6,38.6,30.37,NNW,338,4.5,11.0,89,0.04,,---,0.16,VWS V14.01,2013-01-15 04:07:00,
2013-01-14 23:12:00,41.5,38.5,30.37,NNW,346,7.8,7.8,89,0.04,,---,0.16,VWS V14.01,2013-01-15 04:12:00,
2013-01-14 23:17:00,41.5,38.5,30.37,NW,326,9.1,11.7,89,0.04,,---,0.16,VWS V14.01,2013-01-15 04:17:00,
2013-01-14 23:22:00,41.3,38.3,30.40,NNW,332,7.8,7.8,89,0.04,,---,0.16,VWS V14.01,2013-01-15 04:22:00,
2013-01-14 23:27:00,41.1,38.1,30.40,North,357,5.8,6.5,89,0.04,,---,0.16,VWS V14.01,2013-01-15 04:27:00,
2013-01-14 23:32:00,41.1,38.1,30.40,North,357,8.4,8.4,89,0.04,,---,0.16,VWS V14.01,2013-01-15 04:32:00,
2013-01-14 23:38:00,41.1,38.1,30.37,NNE,29,5.2,5.2,89,0.04,,---,0.16,VWS V14.01,2013-01-15 04:38:00,
2013-01-14 23:43:00,41.1,38.1,30.37,North,353,0.0,0.0,89,0.04,,---,0.16,VWS V14.01,2013-01-15 04:43:00,
2013-01-14 23:48:00,41.3,38.7,30.37,North,353,0.0,0.0,90,0.04,,---,0.16,VWS V14.01,2013-01-15 04:48:00,
2013-01-14 23:53:00,41.5,38.8,30.37,North,353,0.0,0.0,90,0.04,,---,0.16,VWS V14.01,2013-01-15 04:53:00,
2013-01-14 23:58:00,41.5,38.5,30.37,North,353,0.0,0.0,89,0.04,,---,0.16,VWS V14.01,2013-01-15 04:58:00,